Weather in Bor

Russia / Saint-Petersburg and Leningrad Oblast     60°28′28″N   34°18′59″E
temp.,
°C
wind,
m/s
gust,
m/s
humid.,
%
clouds,
%
prec.,
mm/h
press.,
hPa
HPBL,
m
6 march, sat
sat600:00−13nnw119434 0.0 101320
03:00−15wsw129631 0.0 101520
06:00−16wsw129840 0.0 101420
09:00−13sw249860 0.1 1013138
12:00−7sw3693100 0.1 1013460
15:00−5sw4889100 0.1 1009881
18:00−6ssw41184100 0.1 1004996
21:00−6ssw71493100 0.5 9981053
7 march, sun
sun700:00−5s71593100 1.8 9901094
03:00−3ssw61395100 4.6 9871023
06:00−6w31089100 1.2 985554
09:00−10nw288882 1.2 985239
12:00−7wnw248253 0.0 987449
15:00−6wnw368277 0.0 989693
18:00−8wnw4991100 0.1 991539
21:00−8nne51092100 0.9 993745
8 march, mon
mon800:00−9nne51190100 0.1 996746
03:00−11nne51290100 0.2 1000651
06:00−13nne51291100 0.0 1003594
09:00−16nne41193100 0.1 1007456
12:00−15n3793100 0.0 1009429
15:00−14n3692100 0.1 1012467
18:00−17nne2695100 0.0 1014182
21:00−22nne239764 0.0 101653
9 march, tue
tue900:00−24n229914 0.0 101720
03:00−26n229937 0.0 101819
06:00−28ne129913 0.0 101919
09:00−26ne11977 0.0 102171
12:00−18ene12840 0.0 1021315
15:00−15e22780 0.0 1021447
18:00−17ene22910 0.0 102120
21:00−21ene23930 0.0 102226
10 march, wed
wed1000:00−23e23900 0.0 102326
03:00−24e23840 0.0 102437
06:00−25e23870 0.0 102439
09:00−22e23920 0.0 1025103
12:00−14e248294 0.0 1025301
15:00−10e248097 0.0 1024434
18:00−13se228922 0.0 102420
21:00−19se228911 0.0 102420